Time,TemperatureF,DewpointF,PressureIn,WindDirection,WindDirectionDegrees,WindSpeedMPH,WindSpeedGustMPH,Humidity,HourlyPrecipIn,Conditions,Clouds,dailyrainin,SolarRadiationWatts/m^2,SoftwareType,DateUTC
2013-07-31 00:01:00,65.0,65.0,29.27,South,180,0.0,0.0,100,0.00,,---,0.00,0.00,VWS V14.01,2013-07-31 04:01:00,
2013-07-31 00:02:00,65.0,65.0,29.27,South,180,0.0,0.0,100,0.00,,---,0.00,0.00,VWS V14.01,2013-07-31 04:02:00,
2013-07-31 00:07:00,66.0,66.0,29.26,SE,135,0.0,0.0,100,0.00,,---,0.00,0.00,VWS V14.01,2013-07-31 04:07:00,
2013-07-31 00:12:00,66.0,66.0,29.26,SE,135,0.0,0.0,100,0.00,,---,0.00,0.00,VWS V14.01,2013-07-31 04:12:00,
2013-07-31 00:17:00,66.0,66.0,29.26,SE,135,0.0,0.0,100,0.00,,---,0.00,0.00,VWS V14.01,2013-07-31 04:17:00,
2013-07-31 00:22:00,66.0,66.0,29.26,SE,135,2.0,2.0,100,0.00,,---,0.00,0.00,VWS V14.01,2013-07-31 04:22:00,
2013-07-31 00:27:00,66.0,66.0,29.27,South,180,0.0,0.0,100,0.00,,---,0.00,0.00,VWS V14.01,2013-07-31 04:27:00,
2013-07-31 00:32:00,66.0,66.0,29.27,SE,135,0.0,0.0,100,0.00,,---,0.00,0.00,VWS V14.01,2013-07-31 04:32:00,
2013-07-31 00:37:00,66.0,66.0,29.27,South,180,0.0,0.0,100,0.00,,---,0.00,0.00,VWS V14.01,2013-07-31 04:37:00,
2013-07-31 00:42:00,66.0,66.0,29.27,SSE,157,0.0,0.0,100,0.00,,---,0.00,0.00,VWS V14.01,2013-07-31 04:42:00,
2013-07-31 00:47:00,66.0,66.0,29.27,South,180,0.0,0.0,100,0.00,,---,0.00,0.00,VWS V14.01,2013-07-31 04:47:00,
2013-07-31 00:52:00,66.0,66.0,29.27,SSE,157,0.0,0.0,100,0.00,,---,0.00,0.00,VWS V14.01,2013-07-31 04:52:00,
2013-07-31 00:57:00,66.0,66.0,29.27,SE,135,0.0,0.0,100,0.00,,---,0.00,0.00,VWS V14.01,2013-07-31 04:57:00,
2013-07-31 01:02:00,66.0,66.0,29.27,SE,135,0.0,0.0,100,0.00,,---,0.00,0.00,VWS V14.01,2013-07-31 05:02:00,
2013-07-31 01:07:00,66.0,66.0,29.26,SE,135,0.0,0.0,100,0.00,,---,0.00,0.00,VWS V14.01,2013-07-31 05:07:00,
2013-07-31 01:12:00,66.0,66.0,29.26,SSE,157,0.0,0.0,100,0.00,,---,0.00,0.00,VWS V14.01,2013-07-31 05:12:00,
2013-07-31 01:17:00,66.0,66.0,29.26,SE,135,0.0,0.0,100,0.00,,---,0.00,0.00,VWS V14.01,2013-07-31 05:17:00,
2013-07-31 01:22:00,65.0,65.0,29.26,SE,135,0.0,0.0,100,0.00,,---,0.00,0.00,VWS V14.01,2013-07-31 05:22:00,
2013-07-31 01:27:00,66.0,66.0,29.26,SE,135,0.0,0.0,100,0.00,,---,0.00,0.00,VWS V14.01,2013-07-31 05:27:00,
2013-07-31 01:32:00,65.0,65.0,29.26,SE,135,0.0,0.0,100,0.00,,---,0.00,0.00,VWS V14.01,2013-07-31 05:32:00,
2013-07-31 01:37:00,66.0,66.0,29.27,SE,135,0.0,0.0,100,0.00,,---,0.00,0.00,VWS V14.01,2013-07-31 05:37:00,
2013-07-31 01:42:00,65.0,65.0,29.27,SE,135,0.0,0.0,100,0.00,,---,0.00,0.00,VWS V14.01,2013-07-31 05:42:00,
2013-07-31 01:47:00,66.0,66.0,29.26,SE,135,0.0,0.0,100,0.00,,---,0.00,0.00,VWS V14.01,2013-07-31 05:47:00,
2013-07-31 01:52:00,65.0,65.0,29.26,SE,135,0.0,0.0,100,0.00,,---,0.00,0.00,VWS V14.01,2013-07-31 05:52:00,
2013-07-31 01:57:00,65.0,65.0,29.26,SE,135,0.0,2.0,100,0.00,,---,0.00,0.00,VWS V14.01,2013-07-31 05:57:00,
2013-07-31 02:02:00,65.0,65.0,29.26,SE,135,0.0,3.0,100,0.00,,---,0.00,0.00,VWS V14.01,2013-07-31 06:02:00,
2013-07-31 02:08:00,65.0,65.0,29.26,South,180,0.0,0.0,100,0.00,,---,0.00,0.00,VWS V14.01,2013-07-31 06:08:00,
2013-07-31 02:12:00,65.0,65.0,29.26,SSE,157,0.0,0.0,100,0.00,,---,0.00,0.00,VWS V14.01,2013-07-31 06:12:00,
2013-07-31 02:17:00,65.0,65.0,29.25,SSE,157,1.0,1.0,100,0.00,,---,0.00,0.00,VWS V14.01,2013-07-31 06:17:00,
2013-07-31 02:22:00,65.0,65.0,29.25,SSE,157,0.0,0.0,100,0.00,,---,0.00,0.00,VWS V14.01,2013-07-31 06:22:00,
2013-07-31 02:27:00,65.0,65.0,29.25,SSE,157,2.0,3.0,100,0.00,,---,0.00,0.00,VWS V14.01,2013-07-31 06:27:00,
2013-07-31 02:32:00,65.0,65.0,29.25,SSE,157,2.0,4.0,100,0.00,,---,0.00,0.00,VWS V14.01,2013-07-31 06:32:00,
2013-07-31 02:37:00,65.0,65.0,29.25,SE,135,0.0,1.0,100,0.00,,---,0.00,0.00,VWS V14.01,2013-07-31 06:37:00,
2013-07-31 02:43:00,65.0,65.0,29.25,ESE,112,2.0,3.0,100,0.00,,---,0.00,0.00,VWS V14.01,2013-07-31 06:43:00,
2013-07-31 02:48:00,65.0,65.0,29.24,SE,135,1.0,5.0,100,0.00,,---,0.00,0.00,VWS V14.01,2013-07-31 06:48:00,
2013-07-31 02:53:00,65.0,65.0,29.24,SE,135,0.0,0.0,100,0.00,,---,0.00,0.00,VWS V14.01,2013-07-31 06:53:00,
2013-07-31 02:58:00,65.0,65.0,29.24,South,180,2.0,3.0,100,0.00,,---,0.00,0.00,VWS V14.01,2013-07-31 06:58:00,
2013-07-31 03:03:00,65.0,65.0,29.24,SE,135,1.0,3.0,100,0.00,,---,0.00,0.00,VWS V14.01,2013-07-31 07:03:00,
2013-07-31 03:08:00,65.0,65.0,29.24,SW,225,3.0,4.0,100,0.00,,---,0.00,0.00,VWS V14.01,2013-07-31 07:08:00,
2013-07-31 03:13:00,65.0,65.0,29.24,SE,135,7.0,7.0,100,0.00,,---,0.00,0.00,VWS V14.01,2013-07-31 07:13:00,
2013-07-31 03:18:00,65.0,65.0,29.23,SE,135,4.0,7.0,100,0.00,,---,0.00,0.00,VWS V14.01,2013-07-31 07:18:00,
2013-07-31 03:23:00,65.0,65.0,29.23,South,180,2.0,4.0,100,0.00,,---,0.00,0.00,VWS V14.01,2013-07-31 07:23:00,
2013-07-31 03:28:00,65.0,65.0,29.23,SSE,157,3.0,3.0,100,0.00,,---,0.00,0.00,VWS V14.01,2013-07-31 07:28:00,
2013-07-31 03:33:00,65.0,65.0,29.23,South,180,2.0,3.0,100,0.00,,---,0.00,0.00,VWS V14.01,2013-07-31 07:33:00,
2013-07-31 03:38:00,65.0,65.0,29.23,SSE,157,2.0,10.0,100,0.00,,---,0.00,0.00,VWS V14.01,2013-07-31 07:38:00,
2013-07-31 03:43:00,65.0,65.0,29.23,SE,135,0.0,4.0,100,0.00,,---,0.00,0.00,VWS V14.01,2013-07-31 07:43:00,
2013-07-31 03:48:00,65.0,65.0,29.23,SE,135,2.0,5.0,100,0.00,,---,0.00,0.00,VWS V14.01,2013-07-31 07:48:00,
2013-07-31 03:53:00,65.0,65.0,29.23,SSW,202,4.0,5.0,100,0.00,,---,0.00,0.00,VWS V14.01,2013-07-31 07:53:00,
2013-07-31 03:58:00,65.0,65.0,29.23,SE,135,8.0,12.0,100,0.00,,---,0.00,0.00,VWS V14.01,2013-07-31 07:58:00,
2013-07-31 04:03:00,65.0,65.0,29.23,SE,135,4.0,7.0,100,0.00,,---,0.00,0.00,VWS V14.01,2013-07-31 08:03:00,
2013-07-31 04:08:00,65.0,65.0,29.23,SSE,157,4.0,4.0,100,0.00,,---,0.00,0.00,VWS V14.01,2013-07-31 08:08:00,
2013-07-31 04:13:00,65.0,65.0,29.23,SSE,157,2.0,5.0,100,0.00,,---,0.00,0.00,VWS V14.01,2013-07-31 08:13:00,
2013-07-31 04:18:00,65.0,65.0,29.23,SE,135,5.0,7.0,100,0.00,,---,0.00,0.00,VWS V14.01,2013-07-31 08:18:00,
2013-07-31 04:23:00,65.0,65.0,29.23,South,180,3.0,6.0,100,0.00,,---,0.00,0.00,VWS V14.01,2013-07-31 08:23:00,
2013-07-31 04:28:00,64.0,64.0,29.23,SE,135,1.0,7.0,100,0.00,,---,0.00,0.00,VWS V14.01,2013-07-31 08:28:00,
2013-07-31 04:33:00,64.0,64.0,29.23,SE,135,3.0,3.0,100,0.00,,---,0.00,0.00,VWS V14.01,2013-07-31 08:33:00,
2013-07-31 04:38:00,64.0,64.0,29.23,South,180,1.0,3.0,100,0.00,,---,0.00,0.00,VWS V14.01,2013-07-31 08:38:00,
2013-07-31 04:43:00,64.0,64.0,29.23,SE,135,7.0,7.0,100,0.00,,---,0.00,0.00,VWS V14.01,2013-07-31 08:43:00,
2013-07-31 04:48:00,64.0,64.0,29.22,SSE,157,3.0,4.0,100,0.00,,---,0.00,0.00,VWS V14.01,2013-07-31 08:48:00,
2013-07-31 04:53:00,64.0,64.0,29.22,SE,135,3.0,3.0,100,0.00,,---,0.00,0.00,VWS V14.01,2013-07-31 08:53:00,
2013-07-31 04:58:00,64.0,64.0,29.22,ESE,112,4.0,5.0,100,0.00,,---,0.00,0.00,VWS V14.01,2013-07-31 08:58:00,
2013-07-31 05:03:00,64.0,64.0,29.22,SE,135,4.0,4.0,100,0.00,,---,0.00,0.00,VWS V14.01,2013-07-31 09:03:00,
2013-07-31 05:08:00,64.0,64.0,29.23,SE,135,0.0,3.0,100,0.00,,---,0.00,0.00,VWS V14.01,2013-07-31 09:08:00,
2013-07-31 05:13:00,64.0,64.0,29.23,SE,135,3.0,4.0,100,0.00,,---,0.00,0.00,VWS V14.01,2013-07-31 09:13:00,
2013-07-31 05:18:00,64.0,64.0,29.23,SE,135,0.0,3.0,100,0.00,,---,0.00,0.00,VWS V14.01,2013-07-31 09:18:00,
2013-07-31 05:23:00,64.0,64.0,29.23,South,180,0.0,2.0,100,0.00,,---,0.00,0.00,VWS V14.01,2013-07-31 09:23:00,
2013-07-31 05:28:00,64.0,64.0,29.22,SE,135,0.0,0.0,100,0.00,,---,0.00,0.00,VWS V14.01,2013-07-31 09:28:00,
2013-07-31 05:33:00,64.0,64.0,29.22,SE,135,0.0,0.0,100,0.00,,---,0.00,0.00,VWS V14.01,2013-07-31 09:33:00,
2013-07-31 05:38:00,64.0,64.0,29.22,ESE,112,3.0,3.0,100,0.00,,---,0.00,0.00,VWS V14.01,2013-07-31 09:38:00,
2013-07-31 05:43:00,64.0,64.0,29.22,SE,135,0.0,0.0,100,0.00,,---,0.00,0.00,VWS V14.01,2013-07-31 09:43:00,
2013-07-31 05:48:00,64.0,64.0,29.22,South,180,0.0,0.0,100,0.01,,---,0.01,0.00,VWS V14.01,2013-07-31 09:48:00,
2013-07-31 05:53:00,64.0,64.0,29.22,SE,135,0.0,0.0,100,0.01,,---,0.01,0.00,VWS V14.01,2013-07-31 09:53:00,
2013-07-31 05:58:00,64.0,64.0,29.22,SE,135,3.0,3.0,100,0.01,,---,0.01,0.00,VWS V14.01,2013-07-31 09:58:00,
2013-07-31 06:03:00,64.0,64.0,29.22,SE,135,0.0,0.0,100,0.01,,---,0.01,0.00,VWS V14.01,2013-07-31 10:03:00,
2013-07-31 06:08:00,64.0,64.0,29.23,ESE,112,1.0,3.0,100,0.01,,---,0.01,0.00,VWS V14.01,2013-07-31 10:08:00,
2013-07-31 06:13:00,64.0,64.0,29.23,SSE,157,0.0,4.0,100,0.01,,---,0.01,0.00,VWS V14.01,2013-07-31 10:13:00,
2013-07-31 06:18:00,64.0,64.0,29.23,SE,135,0.0,1.0,100,0.01,,---,0.01,0.00,VWS V14.01,2013-07-31 10:18:00,
2013-07-31 06:23:00,64.0,64.0,29.23,SSE,157,0.0,0.0,100,0.01,,---,0.01,0.00,VWS V14.01,2013-07-31 10:23:00,
2013-07-31 06:28:00,64.0,64.0,29.23,ESE,112,3.0,3.0,100,0.01,,---,0.01,0.00,VWS V14.01,2013-07-31 10:28:00,
2013-07-31 06:33:00,64.0,64.0,29.23,ESE,112,3.0,4.0,100,0.01,,---,0.01,0.00,VWS V14.01,2013-07-31 10:33:00,
2013-07-31 06:38:00,64.0,64.0,29.23,SE,135,2.0,3.0,100,0.01,,---,0.01,0.00,VWS V14.01,2013-07-31 10:38:00,
2013-07-31 06:43:00,64.0,64.0,29.23,SE,135,3.0,3.0,100,0.01,,---,0.01,0.00,VWS V14.01,2013-07-31 10:43:00,
2013-07-31 06:48:00,64.0,64.0,29.23,SE,135,0.0,0.0,100,0.01,,---,0.01,0.00,VWS V14.01,2013-07-31 10:48:00,
2013-07-31 06:53:00,64.0,64.0,29.23,SE,135,2.0,3.0,100,0.01,,---,0.02,0.00,VWS V14.01,2013-07-31 10:53:00,
2013-07-31 06:58:00,64.0,64.0,29.23,South,180,0.0,0.0,100,0.01,,---,0.02,0.00,VWS V14.01,2013-07-31 10:58:00,
2013-07-31 07:03:00,64.0,64.0,29.23,SSE,157,2.0,2.0,100,0.01,,---,0.02,0.00,VWS V14.01,2013-07-31 11:03:00,
2013-07-31 07:08:00,64.0,64.0,29.23,SE,135,0.0,0.0,100,0.01,,---,0.02,0.00,VWS V14.01,2013-07-31 11:08:00,
2013-07-31 07:13:00,64.0,64.0,29.23,SSE,157,0.0,5.0,100,0.01,,---,0.02,0.00,VWS V14.01,2013-07-31 11:13:00,
2013-07-31 07:18:00,64.0,64.0,29.22,SSE,157,2.0,3.0,100,0.01,,---,0.02,0.00,VWS V14.01,2013-07-31 11:18:00,
2013-07-31 07:23:00,64.0,64.0,29.22,ESE,112,6.0,6.0,100,0.01,,---,0.02,0.00,VWS V14.01,2013-07-31 11:23:00,
2013-07-31 07:28:00,64.0,64.0,29.23,SSE,157,2.0,4.0,100,0.01,,---,0.02,0.00,VWS V14.01,2013-07-31 11:28:00,
2013-07-31 07:34:00,64.0,64.0,29.23,South,180,3.0,4.0,100,0.01,,---,0.02,0.00,VWS V14.01,2013-07-31 11:34:00,
2013-07-31 07:39:00,64.0,64.0,29.23,SE,135,0.0,0.0,100,0.01,,---,0.02,0.00,VWS V14.01,2013-07-31 11:39:00,
2013-07-31 07:44:00,64.0,64.0,29.23,SE,135,0.0,0.0,100,0.01,,---,0.02,0.00,VWS V14.01,2013-07-31 11:44:00,
2013-07-31 07:49:00,64.0,64.0,29.23,SE,135,0.0,0.0,100,0.01,,---,0.02,0.00,VWS V14.01,2013-07-31 11:49:00,
2013-07-31 07:54:00,64.0,64.0,29.23,SSE,157,3.0,3.0,100,0.00,,---,0.02,0.00,VWS V14.01,2013-07-31 11:54:00,
2013-07-31 07:59:00,64.0,64.0,29.22,South,180,0.0,3.0,100,0.00,,---,0.02,0.00,VWS V14.01,2013-07-31 11:59:00,
2013-07-31 08:04:00,64.0,64.0,29.22,SE,135,0.0,0.0,100,0.01,,---,0.03,0.00,VWS V14.01,2013-07-31 12:04:00,
2013-07-31 08:09:00,64.0,64.0,29.22,SE,135,2.0,3.0,100,0.01,,---,0.03,0.00,VWS V14.01,2013-07-31 12:09:00,
2013-07-31 08:14:00,64.0,64.0,29.22,South,180,0.0,0.0,100,0.01,,---,0.03,0.00,VWS V14.01,2013-07-31 12:14:00,
2013-07-31 08:19:00,64.0,64.0,29.22,SE,135,0.0,1.0,100,0.01,,---,0.03,0.00,VWS V14.01,2013-07-31 12:19:00,
2013-07-31 08:24:00,64.0,64.0,29.22,SE,135,3.0,4.0,100,0.01,,---,0.03,0.00,VWS V14.01,2013-07-31 12:24:00,
2013-07-31 08:29:00,64.0,64.0,29.22,SE,135,3.0,4.0,100,0.01,,---,0.03,0.00,VWS V14.01,2013-07-31 12:29:00,
2013-07-31 08:34:00,64.0,64.0,29.22,ESE,112,0.0,2.0,100,0.02,,---,0.04,0.00,VWS V14.01,2013-07-31 12:34:00,
2013-07-31 08:39:00,64.0,64.0,29.23,South,180,0.0,0.0,100,0.02,,---,0.04,0.00,VWS V14.01,2013-07-31 12:39:00,
2013-07-31 08:44:00,64.0,64.0,29.23,SE,135,0.0,3.0,100,0.02,,---,0.04,0.00,VWS V14.01,2013-07-31 12:44:00,
2013-07-31 08:49:00,64.0,64.0,29.22,South,180,0.0,2.0,100,0.02,,---,0.04,0.00,VWS V14.01,2013-07-31 12:49:00,
2013-07-31 08:54:00,64.0,64.0,29.22,SSE,157,3.0,3.0,100,0.03,,---,0.05,0.00,VWS V14.01,2013-07-31 12:54:00,
2013-07-31 08:59:00,64.0,64.0,29.22,SE,135,0.0,0.0,100,0.03,,---,0.05,0.00,VWS V14.01,2013-07-31 12:59:00,
2013-07-31 09:04:00,64.0,64.0,29.22,ESE,112,2.0,2.0,100,0.03,,---,0.06,0.00,VWS V14.01,2013-07-31 13:04:00,
2013-07-31 09:09:00,64.0,64.0,29.22,ESE,112,3.0,3.0,100,0.03,,---,0.06,0.00,VWS V14.01,2013-07-31 13:09:00,
2013-07-31 09:14:00,64.0,64.0,29.22,SE,135,2.0,3.0,100,0.03,,---,0.06,0.00,VWS V14.01,2013-07-31 13:14:00,
2013-07-31 09:19:00,64.0,64.0,29.22,SE,135,3.0,4.0,100,0.03,,---,0.06,0.00,VWS V14.01,2013-07-31 13:19:00,
2013-07-31 09:20:00,64.0,64.0,29.22,SE,135,5.0,5.0,100,0.03,,---,0.06,0.00,VWS V14.01,2013-07-31 13:20:00,
2013-07-31 09:25:00,64.0,64.0,29.22,SE,135,0.0,0.0,100,0.04,,---,0.07,0.00,VWS V14.01,2013-07-31 13:25:00,
2013-07-31 09:30:00,64.0,64.0,29.22,SE,135,2.0,3.0,100,0.04,,---,0.07,0.00,VWS V14.01,2013-07-31 13:30:00,
2013-07-31 09:35:00,64.0,64.0,29.22,SE,135,2.0,2.0,100,0.03,,---,0.07,0.00,VWS V14.01,2013-07-31 13:35:00,
2013-07-31 09:40:00,64.0,64.0,29.22,SSE,157,3.0,4.0,100,0.03,,---,0.07,0.00,VWS V14.01,2013-07-31 13:40:00,
2013-07-31 09:45:00,64.0,64.0,29.22,South,180,1.0,3.0,100,0.03,,---,0.07,0.00,VWS V14.01,2013-07-31 13:45:00,
2013-07-31 09:50:00,64.0,64.0,29.22,SE,135,3.0,5.0,100,0.03,,---,0.07,0.00,VWS V14.01,2013-07-31 13:50:00,
2013-07-31 09:55:00,65.0,65.0,29.22,SW,225,0.0,3.0,100,0.02,,---,0.07,0.00,VWS V14.01,2013-07-31 13:55:00,
2013-07-31 10:00:00,65.0,65.0,29.21,SSW,202,0.0,3.0,100,0.02,,---,0.07,0.00,VWS V14.01,2013-07-31 14:00:00,
2013-07-31 10:05:00,65.0,65.0,29.21,South,180,1.0,4.0,100,0.01,,---,0.07,0.00,VWS V14.01,2013-07-31 14:05:00,
2013-07-31 10:10:00,65.0,65.0,29.21,SE,135,3.0,4.0,100,0.01,,---,0.07,0.00,VWS V14.01,2013-07-31 14:10:00,
2013-07-31 10:15:00,65.0,65.0,29.21,SE,135,3.0,3.0,100,0.01,,---,0.07,0.00,VWS V14.01,2013-07-31 14:15:00,
2013-07-31 10:20:00,65.0,65.0,29.21,SE,135,1.0,3.0,100,0.01,,---,0.07,0.00,VWS V14.01,2013-07-31 14:20:00,
2013-07-31 10:25:00,65.0,65.0,29.21,SSE,157,0.0,0.0,100,0.00,,---,0.07,0.00,VWS V14.01,2013-07-31 14:25:00,
2013-07-31 10:30:00,65.0,65.0,29.21,SE,135,2.0,3.0,100,0.00,,---,0.07,0.00,VWS V14.01,2013-07-31 14:30:00,
2013-07-31 10:32:00,65.0,65.0,29.21,ESE,112,0.0,0.0,100,0.00,,---,0.07,0.00,VWS V14.01,2013-07-31 14:32:00,
2013-07-31 10:37:00,65.0,65.0,29.21,South,180,1.0,1.0,100,0.00,,---,0.07,0.00,VWS V14.01,2013-07-31 14:37:00,
2013-07-31 10:42:00,65.0,65.0,29.21,SE,135,1.0,3.0,100,0.00,,---,0.07,0.00,VWS V14.01,2013-07-31 14:42:00,
2013-07-31 10:47:00,66.0,66.0,29.21,SE,135,3.0,3.0,100,0.00,,---,0.07,0.00,VWS V14.01,2013-07-31 14:47:00,
2013-07-31 10:52:00,65.0,65.0,29.21,SSE,157,3.0,4.0,100,0.00,,---,0.07,0.00,VWS V14.01,2013-07-31 14:52:00,
2013-07-31 10:57:00,66.0,66.0,29.20,SSW,202,0.0,0.0,100,0.00,,---,0.07,0.00,VWS V14.01,2013-07-31 14:57:00,
2013-07-31 11:02:00,66.0,66.0,29.20,SE,135,3.0,3.0,100,0.00,,---,0.07,0.00,VWS V14.01,2013-07-31 15:02:00,
2013-07-31 11:07:00,66.0,66.0,29.20,SSW,202,0.0,3.0,100,0.00,,---,0.07,0.00,VWS V14.01,2013-07-31 15:07:00,
2013-07-31 11:12:00,66.0,66.0,29.20,SE,135,2.0,3.0,100,0.00,,---,0.07,0.00,VWS V14.01,2013-07-31 15:12:00,
2013-07-31 11:17:00,66.0,66.0,29.20,SW,225,0.0,2.0,100,0.00,,---,0.07,0.00,VWS V14.01,2013-07-31 15:17:00,
2013-07-31 11:22:00,66.0,66.0,29.20,SE,135,0.0,0.0,100,0.00,,---,0.07,0.00,VWS V14.01,2013-07-31 15:22:00,
2013-07-31 11:27:00,67.0,67.0,29.20,South,180,0.0,0.0,100,0.00,,---,0.07,0.00,VWS V14.01,2013-07-31 15:27:00,
2013-07-31 11:32:00,67.0,67.0,29.20,SSE,157,2.0,3.0,100,0.00,,---,0.07,0.00,VWS V14.01,2013-07-31 15:32:00,
2013-07-31 11:37:00,67.0,67.0,29.19,SE,135,0.0,3.0,100,0.00,,---,0.07,0.00,VWS V14.01,2013-07-31 15:37:00,
2013-07-31 11:42:00,66.0,66.0,29.19,ESE,112,6.0,6.0,100,0.00,,---,0.07,0.00,VWS V14.01,2013-07-31 15:42:00,
2013-07-31 11:47:00,67.0,67.0,29.19,SE,135,4.0,4.0,100,0.00,,---,0.07,0.00,VWS V14.01,2013-07-31 15:47:00,
2013-07-31 11:52:00,67.0,67.0,29.19,SE,135,1.0,4.0,100,0.00,,---,0.07,0.00,VWS V14.01,2013-07-31 15:52:00,
2013-07-31 11:57:00,67.0,67.0,29.19,SE,135,0.0,2.0,100,0.00,,---,0.07,0.00,VWS V14.01,2013-07-31 15:57:00,
2013-07-31 12:02:00,67.0,67.0,29.19,East,90,1.0,1.0,100,0.00,,---,0.07,0.00,VWS V14.01,2013-07-31 16:02:00,
2013-07-31 12:07:00,68.0,68.0,29.18,SSW,202,0.0,0.0,100,0.00,,---,0.07,0.00,VWS V14.01,2013-07-31 16:07:00,
2013-07-31 12:12:00,68.0,68.0,29.18,ESE,112,2.0,4.0,100,0.00,,---,0.07,0.00,VWS V14.01,2013-07-31 16:12:00,
2013-07-31 12:17:00,68.0,68.0,29.18,South,180,1.0,3.0,100,0.00,,---,0.07,0.00,VWS V14.01,2013-07-31 16:17:00,
2013-07-31 12:22:00,68.0,68.0,29.18,South,180,0.0,3.0,100,0.00,,---,0.07,0.00,VWS V14.01,2013-07-31 16:22:00,
2013-07-31 12:27:00,68.0,68.0,29.18,SE,135,0.0,3.0,100,0.00,,---,0.07,0.00,VWS V14.01,2013-07-31 16:27:00,
2013-07-31 12:32:00,68.0,68.0,29.18,South,180,4.0,6.0,100,0.00,,---,0.07,0.00,VWS V14.01,2013-07-31 16:32:00,
2013-07-31 12:37:00,68.0,68.0,29.17,SSE,157,1.0,2.0,100,0.00,,---,0.07,0.00,VWS V14.01,2013-07-31 16:37:00,
2013-07-31 12:42:00,68.0,68.0,29.17,SSW,202,1.0,3.0,100,0.00,,---,0.07,0.00,VWS V14.01,2013-07-31 16:42:00,
2013-07-31 12:47:00,69.0,69.0,29.17,SSE,157,0.0,0.0,100,0.00,,---,0.07,0.00,VWS V14.01,2013-07-31 16:47:00,
2013-07-31 12:52:00,69.0,69.0,29.17,SSE,157,3.0,5.0,100,0.00,,---,0.07,0.00,VWS V14.01,2013-07-31 16:52:00,
2013-07-31 12:58:00,69.0,69.0,29.17,SE,135,3.0,4.0,100,0.00,,---,0.07,0.00,VWS V14.01,2013-07-31 16:58:00,
2013-07-31 13:02:00,69.0,69.0,29.17,SE,135,0.0,2.0,100,0.00,,---,0.07,0.00,VWS V14.01,2013-07-31 17:02:00,
2013-07-31 13:07:00,69.0,69.0,29.17,SSE,157,0.0,0.0,100,0.00,,---,0.07,0.00,VWS V14.01,2013-07-31 17:07:00,
2013-07-31 13:12:00,69.0,69.0,29.17,ESE,112,4.0,5.0,100,0.00,,---,0.07,0.00,VWS V14.01,2013-07-31 17:12:00,
2013-07-31 13:17:00,69.0,69.0,29.17,South,180,2.0,3.0,100,0.00,,---,0.07,0.00,VWS V14.01,2013-07-31 17:17:00,
2013-07-31 13:22:00,70.0,70.0,29.17,West,270,0.0,0.0,100,0.00,,---,0.07,0.00,VWS V14.01,2013-07-31 17:22:00,
2013-07-31 13:27:00,70.0,70.0,29.16,SSE,157,0.0,0.0,100,0.00,,---,0.07,0.00,VWS V14.01,2013-07-31 17:27:00,
2013-07-31 13:32:00,70.0,70.0,29.16,SE,135,0.0,0.0,100,0.00,,---,0.07,0.00,VWS V14.01,2013-07-31 17:32:00,
2013-07-31 13:37:00,70.0,70.0,29.16,East,90,3.0,4.0,100,0.00,,---,0.07,0.00,VWS V14.01,2013-07-31 17:37:00,
2013-07-31 13:42:00,70.0,70.0,29.16,South,180,0.0,2.0,100,0.00,,---,0.07,0.00,VWS V14.01,2013-07-31 17:42:00,
2013-07-31 13:47:00,70.0,70.0,29.16,ESE,112,0.0,0.0,100,0.00,,---,0.07,0.00,VWS V14.01,2013-07-31 17:47:00,
2013-07-31 13:52:00,70.0,70.0,29.16,South,180,0.0,0.0,100,0.00,,---,0.07,0.00,VWS V14.01,2013-07-31 17:52:00,
2013-07-31 13:57:00,70.0,70.0,29.15,SSE,157,0.0,4.0,100,0.00,,---,0.07,0.00,VWS V14.01,2013-07-31 17:57:00,
2013-07-31 14:02:00,70.0,70.0,29.15,North,360,0.0,0.0,100,0.00,,---,0.07,0.00,VWS V14.01,2013-07-31 18:02:00,
2013-07-31 14:07:00,71.0,71.0,29.15,SE,135,0.0,0.0,100,0.00,,---,0.07,0.00,VWS V14.01,2013-07-31 18:07:00,
2013-07-31 14:12:00,71.0,71.0,29.15,SE,135,0.0,0.0,100,0.00,,---,0.07,0.00,VWS V14.01,2013-07-31 18:12:00,
2013-07-31 14:17:00,71.0,70.4,29.14,East,90,4.0,5.0,98,0.00,,---,0.07,0.00,VWS V14.01,2013-07-31 18:17:00,
2013-07-31 14:22:00,71.0,71.0,29.14,SE,135,3.0,5.0,100,0.00,,---,0.07,0.00,VWS V14.01,2013-07-31 18:22:00,
2013-07-31 14:27:00,71.0,71.0,29.14,SW,225,0.0,3.0,100,0.00,,---,0.07,0.00,VWS V14.01,2013-07-31 18:27:00,
2013-07-31 14:32:00,71.0,70.7,29.14,SE,135,4.0,4.0,99,0.00,,---,0.07,0.00,VWS V14.01,2013-07-31 18:32:00,
2013-07-31 14:37:00,72.0,71.4,29.13,West,270,0.0,1.0,98,0.00,,---,0.07,0.00,VWS V14.01,2013-07-31 18:37:00,
2013-07-31 14:42:00,72.0,71.7,29.13,SE,135,0.0,0.0,99,0.00,,---,0.07,0.00,VWS V14.01,2013-07-31 18:42:00,
2013-07-31 14:47:00,72.0,71.4,29.13,SSE,157,0.0,0.0,98,0.00,,---,0.07,0.00,VWS V14.01,2013-07-31 18:47:00,
2013-07-31 14:52:00,72.0,71.7,29.13,West,270,0.0,1.0,99,0.00,,---,0.07,0.00,VWS V14.01,2013-07-31 18:52:00,
2013-07-31 14:57:00,73.0,72.1,29.13,South,180,1.0,1.0,97,0.00,,---,0.07,0.00,VWS V14.01,2013-07-31 18:57:00,
2013-07-31 15:02:00,73.0,71.8,29.13,SW,225,0.0,0.0,96,0.00,,---,0.07,0.00,VWS V14.01,2013-07-31 19:02:00,
2013-07-31 15:07:00,73.0,69.6,29.12,South,180,2.0,6.0,89,0.00,,---,0.07,0.00,VWS V14.01,2013-07-31 19:07:00,
2013-07-31 15:12:00,73.0,70.5,29.12,South,180,4.0,4.0,92,0.00,,---,0.07,0.00,VWS V14.01,2013-07-31 19:12:00,
2013-07-31 15:17:00,73.0,71.2,29.12,SE,135,3.0,4.0,94,0.00,,---,0.07,0.00,VWS V14.01,2013-07-31 19:17:00,
2013-07-31 15:22:00,73.0,71.2,29.12,South,180,0.0,1.0,94,0.00,,---,0.07,0.00,VWS V14.01,2013-07-31 19:22:00,
2013-07-31 15:27:00,73.0,70.9,29.13,South,180,0.0,1.0,93,0.00,,---,0.07,0.00,VWS V14.01,2013-07-31 19:27:00,
2013-07-31 15:32:00,73.0,70.9,29.13,East,90,0.0,3.0,93,0.00,,---,0.07,0.00,VWS V14.01,2013-07-31 19:32:00,
2013-07-31 15:37:00,73.0,70.5,29.12,South,180,0.0,0.0,92,0.00,,---,0.07,0.00,VWS V14.01,2013-07-31 19:37:00,
2013-07-31 15:42:00,73.0,71.2,29.12,SE,135,0.0,0.0,94,0.00,,---,0.07,0.00,VWS V14.01,2013-07-31 19:42:00,
2013-07-31 15:47:00,73.0,70.5,29.12,SW,225,0.0,4.0,92,0.00,,---,0.07,0.00,VWS V14.01,2013-07-31 19:47:00,
2013-07-31 15:52:00,73.0,70.5,29.12,SSE,157,3.0,3.0,92,0.00,,---,0.07,0.00,VWS V14.01,2013-07-31 19:52:00,
2013-07-31 15:57:00,74.0,71.2,29.12,SSE,157,0.0,3.0,91,0.00,,---,0.07,0.00,VWS V14.01,2013-07-31 19:57:00,
2013-07-31 16:02:00,74.0,71.2,29.12,SE,135,2.0,2.0,91,0.00,,---,0.07,0.00,VWS V14.01,2013-07-31 20:02:00,
2013-07-31 16:07:00,74.0,71.2,29.11,South,180,0.0,0.0,91,0.00,,---,0.07,0.00,VWS V14.01,2013-07-31 20:07:00,
2013-07-31 16:12:00,74.0,71.2,29.11,South,180,3.0,4.0,91,0.00,,---,0.07,0.00,VWS V14.01,2013-07-31 20:12:00,
2013-07-31 16:17:00,74.0,70.2,29.11,SSE,157,2.0,3.0,88,0.00,,---,0.07,0.00,VWS V14.01,2013-07-31 20:17:00,
2013-07-31 16:22:00,74.0,70.6,29.11,NW,315,0.0,0.0,89,0.00,,---,0.07,0.00,VWS V14.01,2013-07-31 20:22:00,
2013-07-31 16:28:00,75.0,71.5,29.11,NW,315,0.0,0.0,89,0.00,,---,0.07,0.00,VWS V14.01,2013-07-31 20:28:00,
2013-07-31 16:33:00,75.0,70.9,29.11,NW,315,0.0,0.0,87,0.00,,---,0.07,0.00,VWS V14.01,2013-07-31 20:33:00,
2013-07-31 16:38:00,76.0,71.9,29.10,ENE,67,0.0,0.0,87,0.00,,---,0.07,0.00,VWS V14.01,2013-07-31 20:38:00,
2013-07-31 16:43:00,76.0,70.8,29.10,SE,135,2.0,3.0,84,0.00,,---,0.07,0.00,VWS V14.01,2013-07-31 20:43:00,
2013-07-31 16:48:00,76.0,70.5,29.09,NW,315,0.0,0.0,83,0.00,,---,0.07,0.00,VWS V14.01,2013-07-31 20:48:00,
2013-07-31 16:53:00,76.0,70.5,29.09,South,180,4.0,5.0,83,0.00,,---,0.07,0.00,VWS V14.01,2013-07-31 20:53:00,
2013-07-31 16:58:00,75.0,69.8,29.09,SE,135,0.0,0.0,84,0.00,,---,0.07,0.00,VWS V14.01,2013-07-31 20:58:00,
2013-07-31 17:03:00,75.0,70.2,29.09,NNE,22,0.0,0.0,85,0.00,,---,0.07,0.00,VWS V14.01,2013-07-31 21:03:00,
2013-07-31 17:08:00,75.0,70.5,29.10,NNW,337,0.0,0.0,86,0.00,,---,0.07,0.00,VWS V14.01,2013-07-31 21:08:00,
2013-07-31 17:13:00,74.0,69.9,29.10,ESE,112,0.0,3.0,87,0.00,,---,0.07,0.00,VWS V14.01,2013-07-31 21:13:00,
2013-07-31 17:18:00,74.0,70.6,29.10,SE,135,0.0,0.0,89,0.01,,---,0.09,0.00,VWS V14.01,2013-07-31 21:18:00,
2013-07-31 17:23:00,73.0,71.2,29.10,NW,315,0.0,0.0,94,0.05,,---,0.13,0.00,VWS V14.01,2013-07-31 21:23:00,
2013-07-31 17:28:00,72.0,71.1,29.11,NW,315,0.0,0.0,97,0.08,,---,0.15,0.00,VWS V14.01,2013-07-31 21:28:00,
2013-07-31 17:33:00,72.0,71.1,29.11,NNW,337,0.0,0.0,97,0.08,,---,0.15,0.00,VWS V14.01,2013-07-31 21:33:00,
2013-07-31 17:38:00,72.0,72.0,29.10,NW,315,0.0,0.0,100,0.08,,---,0.15,0.00,VWS V14.01,2013-07-31 21:38:00,
2013-07-31 17:43:00,73.0,73.0,29.10,West,270,0.0,0.0,100,0.08,,---,0.15,0.00,VWS V14.01,2013-07-31 21:43:00,
2013-07-31 17:48:00,73.0,73.0,29.10,South,180,0.0,1.0,100,0.08,,---,0.15,0.00,VWS V14.01,2013-07-31 21:48:00,
2013-07-31 17:53:00,73.0,73.0,29.10,WNW,292,0.0,0.0,100,0.08,,---,0.15,0.00,VWS V14.01,2013-07-31 21:53:00,
2013-07-31 17:58:00,73.0,73.0,29.09,West,270,0.0,0.0,100,0.08,,---,0.15,0.00,VWS V14.01,2013-07-31 21:58:00,
2013-07-31 18:03:00,73.0,73.0,29.09,WNW,292,0.0,0.0,100,0.08,,---,0.15,0.00,VWS V14.01,2013-07-31 22:03:00,
2013-07-31 18:08:00,73.0,73.0,29.09,East,90,0.0,0.0,100,0.08,,---,0.15,0.00,VWS V14.01,2013-07-31 22:08:00,
2013-07-31 18:13:00,73.0,73.0,29.09,SW,225,0.0,0.0,100,0.08,,---,0.15,0.00,VWS V14.01,2013-07-31 22:13:00,
2013-07-31 18:18:00,73.0,73.0,29.09,SW,225,0.0,0.0,100,0.07,,---,0.15,0.00,VWS V14.01,2013-07-31 22:18:00,
2013-07-31 18:23:00,73.0,73.0,29.09,WNW,292,0.0,0.0,100,0.05,,---,0.15,0.00,VWS V14.01,2013-07-31 22:23:00,
2013-07-31 18:28:00,73.0,73.0,29.09,WNW,292,0.0,0.0,100,0.00,,---,0.15,0.00,VWS V14.01,2013-07-31 22:28:00,
2013-07-31 18:33:00,72.0,72.0,29.09,WNW,292,0.0,0.0,100,0.00,,---,0.15,0.00,VWS V14.01,2013-07-31 22:33:00,
2013-07-31 18:38:00,73.0,73.0,29.09,WNW,292,0.0,0.0,100,0.00,,---,0.15,0.00,VWS V14.01,2013-07-31 22:38:00,
2013-07-31 18:43:00,73.0,73.0,29.09,WNW,292,0.0,0.0,100,0.00,,---,0.15,0.00,VWS V14.01,2013-07-31 22:43:00,
2013-07-31 18:48:00,73.0,73.0,29.09,WNW,292,0.0,0.0,100,0.00,,---,0.15,0.00,VWS V14.01,2013-07-31 22:48:00,
2013-07-31 18:53:00,73.0,73.0,29.09,WNW,292,0.0,0.0,100,0.00,,---,0.15,0.00,VWS V14.01,2013-07-31 22:53:00,
2013-07-31 18:58:00,73.0,73.0,29.08,WNW,292,0.0,0.0,100,0.00,,---,0.15,0.00,VWS V14.01,2013-07-31 22:58:00,
2013-07-31 19:03:00,73.0,73.0,29.08,WNW,292,0.0,0.0,100,0.00,,---,0.15,0.00,VWS V14.01,2013-07-31 23:03:00,
2013-07-31 19:08:00,73.0,73.0,29.08,WNW,292,0.0,0.0,100,0.00,,---,0.15,0.00,VWS V14.01,2013-07-31 23:08:00,
2013-07-31 19:13:00,73.0,73.0,29.08,WNW,292,0.0,0.0,100,0.00,,---,0.15,0.00,VWS V14.01,2013-07-31 23:13:00,
2013-07-31 19:18:00,73.0,73.0,29.07,WNW,292,0.0,0.0,100,0.00,,---,0.15,0.00,VWS V14.01,2013-07-31 23:18:00,
2013-07-31 19:23:00,73.0,73.0,29.07,WNW,292,0.0,0.0,100,0.00,,---,0.15,0.00,VWS V14.01,2013-07-31 23:23:00,
2013-07-31 19:28:00,73.0,73.0,29.07,WNW,292,0.0,0.0,100,0.00,,---,0.15,0.00,VWS V14.01,2013-07-31 23:28:00,
2013-07-31 19:33:00,73.0,73.0,29.07,WNW,292,0.0,0.0,100,0.00,,---,0.15,0.00,VWS V14.01,2013-07-31 23:33:00,
2013-07-31 19:38:00,73.0,73.0,29.07,NW,315,0.0,0.0,100,0.00,,---,0.15,0.00,VWS V14.01,2013-07-31 23:38:00,
2013-07-31 19:43:00,72.0,72.0,29.07,NW,315,0.0,0.0,100,0.00,,---,0.15,0.00,VWS V14.01,2013-07-31 23:43:00,
2013-07-31 19:48:00,72.0,72.0,29.07,NW,315,0.0,0.0,100,0.00,,---,0.15,0.00,VWS V14.01,2013-07-31 23:48:00,
2013-07-31 19:53:00,72.0,72.0,29.07,NW,315,0.0,0.0,100,0.00,,---,0.15,0.00,VWS V14.01,2013-07-31 23:53:00,
2013-07-31 19:58:00,72.0,72.0,29.08,NW,315,0.0,0.0,100,0.00,,---,0.15,0.00,VWS V14.01,2013-07-31 23:58:00,
2013-07-31 20:03:00,71.0,71.0,29.08,NW,315,0.0,0.0,100,0.00,,---,0.15,0.00,VWS V14.01,2013-08-01 00:03:00,
2013-07-31 20:08:00,71.0,71.0,29.08,NW,315,0.0,0.0,100,0.00,,---,0.15,0.00,VWS V14.01,2013-08-01 00:08:00,
2013-07-31 20:13:00,71.0,71.0,29.08,NW,315,0.0,0.0,100,0.00,,---,0.15,0.00,VWS V14.01,2013-08-01 00:13:00,
2013-07-31 20:18:00,71.0,71.0,29.08,NW,315,0.0,0.0,100,0.00,,---,0.15,0.00,VWS V14.01,2013-08-01 00:18:00,
2013-07-31 20:23:00,71.0,71.0,29.08,NW,315,0.0,0.0,100,0.00,,---,0.15,0.00,VWS V14.01,2013-08-01 00:23:00,
2013-07-31 20:28:00,71.0,71.0,29.08,NW,315,0.0,0.0,100,0.00,,---,0.15,0.00,VWS V14.01,2013-08-01 00:28:00,
2013-07-31 20:33:00,70.0,70.0,29.08,NW,315,0.0,0.0,100,0.00,,---,0.15,0.00,VWS V14.01,2013-08-01 00:33:00,
2013-07-31 20:38:00,70.0,70.0,29.09,NW,315,0.0,0.0,100,0.00,,---,0.15,0.00,VWS V14.01,2013-08-01 00:38:00,
2013-07-31 20:43:00,70.0,70.0,29.09,NW,315,0.0,0.0,100,0.00,,---,0.15,0.00,VWS V14.01,2013-08-01 00:43:00,
2013-07-31 20:48:00,70.0,70.0,29.09,NW,315,0.0,0.0,100,0.00,,---,0.15,0.00,VWS V14.01,2013-08-01 00:48:00,
2013-07-31 20:53:00,70.0,70.0,29.09,NW,315,0.0,0.0,100,0.00,,---,0.15,0.00,VWS V14.01,2013-08-01 00:53:00,
2013-07-31 20:58:00,70.0,70.0,29.09,NW,315,0.0,0.0,100,0.00,,---,0.15,0.00,VWS V14.01,2013-08-01 00:58:00,
2013-07-31 21:03:00,69.0,69.0,29.09,NW,315,0.0,0.0,100,0.00,,---,0.15,0.00,VWS V14.01,2013-08-01 01:03:00,
2013-07-31 21:08:00,69.0,69.0,29.09,NW,315,0.0,0.0,100,0.00,,---,0.15,0.00,VWS V14.01,2013-08-01 01:08:00,
2013-07-31 21:13:00,69.0,69.0,29.09,NW,315,0.0,0.0,100,0.00,,---,0.15,0.00,VWS V14.01,2013-08-01 01:13:00,
2013-07-31 21:18:00,69.0,69.0,29.10,NW,315,0.0,0.0,100,0.00,,---,0.15,0.00,VWS V14.01,2013-08-01 01:18:00,
2013-07-31 21:23:00,69.0,69.0,29.10,NW,315,0.0,0.0,100,0.00,,---,0.15,0.00,VWS V14.01,2013-08-01 01:23:00,
2013-07-31 21:28:00,69.0,69.0,29.10,NW,315,0.0,0.0,100,0.00,,---,0.15,0.00,VWS V14.01,2013-08-01 01:28:00,
2013-07-31 21:33:00,69.0,69.0,29.10,NW,315,0.0,0.0,100,0.00,,---,0.15,0.00,VWS V14.01,2013-08-01 01:33:00,
2013-07-31 21:38:00,69.0,69.0,29.10,NW,315,0.0,0.0,100,0.00,,---,0.15,0.00,VWS V14.01,2013-08-01 01:38:00,
2013-07-31 21:43:00,69.0,69.0,29.10,NW,315,0.0,0.0,100,0.00,,---,0.15,0.00,VWS V14.01,2013-08-01 01:43:00,
2013-07-31 21:49:00,69.0,69.0,29.11,NW,315,0.0,0.0,100,0.00,,---,0.15,0.00,VWS V14.01,2013-08-01 01:49:00,
2013-07-31 21:53:00,69.0,69.0,29.11,NW,315,0.0,0.0,100,0.00,,---,0.15,0.00,VWS V14.01,2013-08-01 01:53:00,
2013-07-31 21:58:00,69.0,69.0,29.11,NW,315,0.0,0.0,100,0.00,,---,0.15,0.00,VWS V14.01,2013-08-01 01:58:00,
2013-07-31 22:03:00,69.0,69.0,29.11,NW,315,0.0,0.0,100,0.00,,---,0.15,0.00,VWS V14.01,2013-08-01 02:03:00,
2013-07-31 22:08:00,69.0,69.0,29.12,NW,315,0.0,0.0,100,0.00,,---,0.15,0.00,VWS V14.01,2013-08-01 02:08:00,
2013-07-31 22:13:00,69.0,69.0,29.12,NW,315,0.0,0.0,100,0.00,,---,0.15,0.00,VWS V14.01,2013-08-01 02:13:00,
2013-07-31 22:18:00,69.0,69.0,29.12,NW,315,0.0,0.0,100,0.00,,---,0.15,0.00,VWS V14.01,2013-08-01 02:18:00,
2013-07-31 22:23:00,69.0,69.0,29.12,NW,315,0.0,0.0,100,0.00,,---,0.15,0.00,VWS V14.01,2013-08-01 02:23:00,
2013-07-31 22:28:00,69.0,69.0,29.12,NW,315,0.0,0.0,100,0.00,,---,0.15,0.00,VWS V14.01,2013-08-01 02:28:00,
2013-07-31 22:33:00,69.0,69.0,29.12,NW,315,0.0,0.0,100,0.00,,---,0.15,0.00,VWS V14.01,2013-08-01 02:33:00,
2013-07-31 22:38:00,69.0,69.0,29.12,NW,315,0.0,0.0,100,0.00,,---,0.15,0.00,VWS V14.01,2013-08-01 02:38:00,
2013-07-31 22:43:00,69.0,69.0,29.12,NW,315,0.0,0.0,100,0.00,,---,0.15,0.00,VWS V14.01,2013-08-01 02:43:00,
2013-07-31 22:48:00,69.0,69.0,29.12,NW,315,0.0,0.0,100,0.00,,---,0.15,0.00,VWS V14.01,2013-08-01 02:48:00,
2013-07-31 22:53:00,69.0,69.0,29.12,NW,315,0.0,0.0,100,0.00,,---,0.15,0.00,VWS V14.01,2013-08-01 02:53:00,
2013-07-31 22:58:00,68.0,68.0,29.12,NW,315,0.0,0.0,100,0.00,,---,0.15,0.00,VWS V14.01,2013-08-01 02:58:00,
2013-07-31 23:03:00,68.0,68.0,29.12,NW,315,0.0,0.0,100,0.00,,---,0.15,0.00,VWS V14.01,2013-08-01 03:03:00,
2013-07-31 23:08:00,68.0,68.0,29.12,NW,315,0.0,0.0,100,0.00,,---,0.15,0.00,VWS V14.01,2013-08-01 03:08:00,
2013-07-31 23:13:00,68.0,68.0,29.12,NW,315,0.0,0.0,100,0.00,,---,0.15,0.00,VWS V14.01,2013-08-01 03:13:00,
2013-07-31 23:18:00,68.0,68.0,29.13,West,270,0.0,0.0,100,0.00,,---,0.15,0.00,VWS V14.01,2013-08-01 03:18:00,
2013-07-31 23:23:00,68.0,68.0,29.13,West,270,0.0,0.0,100,0.00,,---,0.15,0.00,VWS V14.01,2013-08-01 03:23:00,
2013-07-31 23:28:00,68.0,68.0,29.13,West,270,0.0,0.0,100,0.00,,---,0.15,0.00,VWS V14.01,2013-08-01 03:28:00,
2013-07-31 23:33:00,68.0,68.0,29.13,WSW,247,2.0,2.0,100,0.00,,---,0.15,0.00,VWS V14.01,2013-08-01 03:33:00,
2013-07-31 23:38:00,68.0,68.0,29.12,SE,135,0.0,0.0,100,0.00,,---,0.15,0.00,VWS V14.01,2013-08-01 03:38:00,
2013-07-31 23:43:00,68.0,68.0,29.12,SSE,157,0.0,0.0,100,0.00,,---,0.15,0.00,VWS V14.01,2013-08-01 03:43:00,
2013-07-31 23:48:00,68.0,68.0,29.13,NNW,337,0.0,0.0,100,0.00,,---,0.15,0.00,VWS V14.01,2013-08-01 03:48:00,
2013-07-31 23:53:00,68.0,68.0,29.13,NNW,337,0.0,0.0,100,0.00,,---,0.15,0.00,VWS V14.01,2013-08-01 03:53:00,
2013-07-31 23:58:00,68.0,68.0,29.13,NW,315,0.0,0.0,100,0.00,,---,0.15,0.00,VWS V14.01,2013-08-01 03:58:00,